Member area
Imprimable
Challenges > Delhalle - Dinant, 26/08/2018, BEL - La Descente de la Lesse
List of reports > Delhalle - 20.75km - Result
Search: Page: [1]
152 Entries
 
Complains are not accepted anymore. Results are final.
PlaceNrNameAgeNATLeagueTeamRealTimeTkmMoy.ScrPtsCity
1.410MOTTOUL VINCENT40BELHUY1:17:481:17:483:45 16.00111086WANZE
2.24MOUCHET STEPHANE44BELACCOJACO1:18:221:18:223:47 15.89151077CHIMAY
3.4346THONNART JULIEN40BELCABWNAC1:18:491:18:513:48 15.79181070BAISY-THY
4.761CHENUT SÉBASTIEN47BELOSGAOSGA1:19:001:19:033:49 15.75191067TERTRE
5.5497MLECZKO OLIVIER47BELJOGGING PLUS1:20:031:20:043:52 15.55221052FLAWINNE
6.263DELCHAMBRE FREDERIC45BELFOULÉES DU PLAISIR1:22:551:22:574:00 15.01271014WANZE
7.5498PIERRE ETIENNE48BELARCHARCH JOG+1:24:231:24:244:05 14.7531995YVOIR
8.785BOURNONVILLE RUDDY44BELSMACCAPTRAIL1:26:101:26:114:10 14.4541969BOIS-DE-VILLERS
9.5188DEMOULIN VINCENT46BELCOACHING ZONE TEAM1:26:171:26:214:10 14.4242967FLAWINNE
10.5308COLOMER JEAN-FRANÇOIS46FRAARCH1:26:221:26:254:10 14.4145965HAMOIS
11.290BALLEUX CHRISTOPHE42BELSMAC1:27:541:27:574:15 14.1650944BOIS-DE-VILLERS
12.8868LEMAIRE IVAN45BEL1:28:231:28:354:17 14.0656936SCHAERBEEK
13.5224DEFRANCE SÉBASTIEN40BEL1:30:081:30:134:21 13.8060914SCHAERBEEK
14.403POCHET ALEXANDRE41BELJCCS1:31:231:31:244:25 13.6263899GEDINNE
15.777DESTREBECQ FRANCOIS44BELET CHIEVRES1:32:151:32:154:27 13.5066888FRASNES-LES-BUISSENAL
16.5205SERVAIS JOHAN42BEL1:32:451:32:514:29 13.4170881HUY
17.5342PAULUS DAVID43BEL1:32:581:33:034:30 13.3873877WAUDREZ
18.9278HOUBION YANNICK40BEL1:33:141:33:174:30 13.3577872PONDRÔME
19.720DE CONINCK BENOIT45BELJETELBINDEAMICKEY1:33:111:33:214:30 13.3478872LEMBEEK
20.748SALAZAR NOEL45BELRIBC1:33:451:33:484:32 13.2781865MOLENBEEK
21.5303GUILLAUME PHILIPPE49BEL1:33:591:34:034:32 13.2482862VEDRIN
22.5187POUSSEUR DOMINIQUE48DEUARCH1:34:171:34:194:33 13.2085857LEIGNON
23.4390CHARLOT MICHAËL47BEL1:34:161:34:214:33 13.2086857DURNAL
24.5584JACQUET ERIC45BELARCH1:35:091:35:124:36 13.0896843DINANT
25.5454THIRY JÉRÔME40BEL1:35:071:35:294:37 13.04100841CHASTRE
26.5583RICHARD ULRICH44BEL1:35:311:35:344:37 13.03101837DINANT
27.5349FRANGELLA FABRIZIO44BEL1:35:341:35:404:37 13.02103835LA LOUVIÈRE
28.4487WAVREILLE DIMITRI41BEL1:35:431:35:564:38 12.98105832BRAS-HAUT
29.5257DUBOIS BERTRAND41BEL1:36:111:36:204:39 12.93108826LONZÉE
30.5400BROSTEAUX PIERRE40BEL1:36:101:36:224:39 12.92109826CHEVETOGNE
31.4445VERTONGHEN YVES46BEL1:36:341:36:364:40 12.89112821MERCHTEM
32.30HANNOTTE CHRISTOPHE45BELRUNNING FERNELMONT1:36:271:36:424:40 12.88115821NOVILLE-LES-BOIS
33.5374DARAS NICOLAS41FRACAP BEAURAING1:36:431:36:474:40 12.87116817GIVET
34.641BRUNIN CHRISTOPHE44BELGAG1:37:061:37:134:42 12.81118812GEMBLOUX
35.4395CAPART RAPHAËL40BEL1:37:131:37:304:42 12.77120810SORINNE-LA-LONGUE
36.5560KUYPERS CHRISTOPHE42BELARCH1:37:321:37:374:43 12.76121806GESVES
37.4389DEPRAETERE MICHAEL45BEL1:37:251:37:484:43 12.73123807METTET
38.5279BEAUGNÉE SÉBASTIEN43BELARCH1:37:391:37:584:44 12.71125803SORINNE-LA-LONGUE
39.4403KEMPENEERS PASCAL48BELFLEU1:37:551:38:074:44 12.69128799EREMBODEGEM
40.5412HASTIR FABRICE47BELARCHTRAKKS TEAM ELITE1:38:311:38:334:45 12.63132791FLORENNES
41.5292DEDOYARD FRANÇOIS43BEL1:39:201:39:274:48 12.52140779MELDERT
42.5382THOMAS OLIVIER42BELGLAISE ET ROC CINEY1:39:231:39:404:49 12.49143777ACHENE
43.5474CASTERMANS DAVID47BEL1:39:541:39:584:50 12.46146770RHISNES
44.5460KÉVERS-LECLERCQ JEAN44BELNAC1:40:231:40:304:51 12.39151763HOUTAIN-LE-VAL
45.5220BASTIEN GUILLAUME42BELSKYRUNNER TEAM1:40:181:40:304:51 12.39152764GRAND-LEEZ
46.5273CHEVALIER MICHAËL46BEL1:40:411:41:024:53 12.32158757NIMY
47.5550URBAIN BAUDOUIN47BEL1:41:201:41:264:54 12.28164748GOUY-LEZ-PIETON
48.4401LIBOIS MARC44BELRAPTOR TEAM1:41:431:41:534:55 12.22169742WÉPION
49.78DUTRIEUX FERNAND47BEL1:42:081:42:084:56 12.19172736BAUDOUR
50.5433DONNAY CEDRIC41BEL1:42:471:42:574:58 12.09183725BRAIBANT
51.5436DESCAMPS PHILIPPE48BELJAMES1:42:451:43:024:58 12.08184725DION LE VAL
52.5217BEULQUE NICO45BEL1:43:021:43:024:58 12.08185721OTEGEM
53.5405DEGEIMBRE SAN47BELZATOPEK NAMUR1:43:071:43:194:59 12.05188719TEMPLOUX
54.5580VALLONS TOM45BEL1:43:131:43:224:59 12.05189717HOLSBEEK
55.4478GUSTIN JÉRÔME42BELRCNAMUR1:43:101:43:234:59 12.04190718FLOREFFE
56.264SCAILLET VINCENT49BELHASTRAIL SINGLETRACK1:43:251:43:345:00 12.02194713HEER-SUR-MEUSE
57.5458CANON MATHIEU42BELLDLV1:43:121:43:365:00 12.02195715LAEKEN
58.5269DESILLE JÉRÉMIE40BEL1:43:341:44:005:01 11.97200709BELGRADE
59.5479ROSOUX LIONEL44BEL1:43:561:44:025:01 11.97201705NAMUR
60.5363LEMAIRE NICOLAS46BEL1:43:481:44:105:02 11.95203706JEMELLE
61.4425MATHIEU LAURENT43BELARCH1:43:521:44:145:02 11.95204705LISOGNE
62.4461PIROTTE OLIVIER45BEL1:44:111:44:175:02 11.94205701NATOYE
63.5208HORNUNG MATTHIEU44DEURED SOX BRUSSELS1:44:121:44:225:02 11.93209699BRUXELLES
64.4477TRUYTS JEAN- CLAUDE48BEL1:44:191:44:285:03 11.92211697LESSINES
65.5336FRIPIAT BERNARD46BEL1:44:271:44:445:03 11.89212695JAMBES
66.4469BLANJEAN DIDIER44BEL1:45:221:45:225:05 11.82215685BRUXELLES
67.4424VANEGHEM BERTRAND48BELJAMES1:45:141:45:315:06 11.80216685DION-VALMONT
68.5565JACQUES FREDERIC47BEL1:45:251:45:405:06 11.78218683BRAIBANT
69.5509DESSY SÉBASTIEN42BELWACO JOGGING1:45:381:45:475:06 11.77222679WAREMME
70.5387FRANSEN KOEN42BELAVN1:45:461:46:015:07 11.75226676HOOGSTRATEN
71.5450SAUVAGE JOANNY45BELARCHARCH1:46:071:46:345:09 11.68236668BIOUL
72.5570SCHICKS YVES43BEL1:46:311:46:465:09 11.66240662PROFONDEVILLE
73.5323VAN DE SANDE BART44NLDKNAUS.V. FORTUNA '671:46:321:46:495:09 11.66242661SINT-OEDENRODE
74.5516BARON LUDOVIC45FRA1:47:141:47:385:12 11.57250651MAUBEUGE
75.731DEPOUILLE HENRI-FRANÇOIS40BELMYSTERE1:47:511:48:075:13 11.52258642NIVELLES
76.780PUFFET BERTRAND41BELLA VINOTHEQUE TEAM1:48:351:48:455:15 11.45266631FIZE-FONTAINE
77.5340COLINET BENOIT46BEL1:48:341:48:525:15 11.44268630JAMIOLLE
78.5504SIMON FABRICE48BELSPIBO1:48:541:49:185:17 11.39270626MONS
79.969FRIPIAT DIDIER41BELRCNAMUR1:49:021:49:205:17 11.39271624NATOYE
80.5398CAUPAIN FABIAN49BELJAMESJAMES LLN1:49:241:49:365:17 11.36277618WALHAIN
81.4360MANIQUET ETIENNE42BEL1:49:091:49:405:18 11.35279620SAINT MARC
82.4382PIERREUX CHRISTOPHE47BEL1:49:101:49:485:18 11.34281619KRAAINEM
83.495DAMBOIS THIERRY49BELUAC1:49:391:49:545:18 11.33283613REVES
84.5230ALLOUCHI SOULI46BELU A C1:49:401:49:555:18 11.33284612FLEURUS
85.5511HAGLUND JESPER49BELCACE1:49:521:50:085:19 11.31287609BRUSSELS
86.4494SCHINCKUS GERALD48BEL1:49:541:50:115:19 11.30288609BOUGE
87.4366THIRY SAMUEL41BEL1:49:541:50:175:19 11.29291607RACOUR
88.5215LEJEUNE PIERRE43BELRC FERNELMONT1:50:061:50:415:21 11.25297603LOUVAIN LA NEUVE
89.5233PIHART HUGO41BEL1:50:591:51:245:23 11.18307590HAN SUR LESSE
90.9999DOMINICY FRANCOIS43BELMYSTERE1:51:421:51:425:23 11.15311581BRUXELLES
91.5359DUMONT SYLVAIN43BEL1:51:561:52:175:25 11.09317577WÉPION
92.4436VAN DEN BUSSCHE DENIS45BELESM - OTC1:52:241:52:245:25 11.08318572MERBES LE CHÂTEAU
93.4351BRASSEUR PHILIPPE49BELTEAM PIHART-PIERLOT1:52:431:53:115:28 11.00322567JEMELLE
94.5289LECLERCQ DAMIEN47BELARCH1:53:121:53:185:28 10.993245625330
95.5518NEMERY SÉBASTIEN43BEL1:52:581:53:305:29 10.97327563BIÈVRE
96.514GREVISSE DAVID44BELRONVAU1:53:111:53:355:29 10.96333558DION VALMONT
97.4378FADISTA RAFAEL47BEL1:53:481:54:285:31 10.88342549VILLERS-LE-BOUILLET
98.4358MIRGAUX EMMANUEL45BEL1:54:131:54:315:32 10.87344544FESCHAUX
99.4371GRAZZI JIMMY45FRACC ESTINNES1:54:131:54:365:32 10.86346543JEUMONT
100.4399HEBRANT ALEXANDRE44BELHEBRANTDIONCOURT1:54:511:55:085:33 10.81348537GREZ-DOICEAU
101.5331MONIN MIGUEL41BELARCH1:55:331:55:445:35 10.76357526CINEY
102.5238EL HARCHI HASSEN45ITA1:55:271:56:175:37 10.71362525
103.5358EL HARCHI SAID48BEL1:56:101:56:255:37 10.69366517VIEUX GENAPPE
104.4363MACQ VINCENT49BEL1:56:051:56:335:37 10.68369516LOUVAIN-LA-NEUVE
105.5231DHAUSSY FABIAN41BEL1:56:561:57:355:40 10.59376506CHASTRE
106.5266VANDENHEEDE FREDERIC45BELJC RONVAU1:57:331:57:465:41 10.57378499CHAUMONT GISTOUX
107.5472TOSCANUCCI MICHAEL43BELZATAC1:57:501:57:555:41 10.56381496MARCHIENNE AU PONT
108.4435DEGROOTE NICOLAAS43BELRCABWNAC1:57:421:57:595:42 10.55382496BRUXELLES
109.782JAROUD SAID47BEL1:57:461:58:075:42 10.54384495FOREST
110.5258JACQUEMIN FRÉDÉRIC42BELCOMPAGNONS1:57:371:58:145:42 10.53386495COURT-ST-ETIENNE
111.5475OLIVIER QUENTIN44BELOLIVIER1:57:361:58:145:42 10.53387494WOLUWÉ-SAINT-LAMBERT
112.4474THILL DIDIER44BEL1:58:441:59:255:46 10.43406476HAVRÉ
113.5222MORMAQUE NICOLAS42BELBOMEL RUNNING TEAM1:59:331:59:455:47 10.40410467SOYE
114.5280CHENIAUX NICOLAS45BELARCH1:59:291:59:475:47 10.39411468CHEVETOGNE
115.940MAAS STIJN41BEL1:59:582:00:105:48 10.36417461LAKEN
116.4344PIETTE MICHAEL46BEL1:59:582:00:145:48 10.36420459AGIMONT
117.5524CLEPPE VINCENT49BELUAC2:00:002:00:155:48 10.35421459FRASNES-LEZ-GOSSELIES
118.5569CHIARADIA BENOIT47ITA1:59:462:00:225:49 10.34422460RIVIÈRE
119.4400HAULOTTE OLIVIER44BELJE COURS À INCOURT2:00:142:00:445:50 10.31429453PERWEZ
120.5337BODART PIERRE45BEL2:01:212:01:395:52 10.24436440TILLIER
121.4380MARTINEZ GARCIA ROBERTO41ESP2:01:412:01:525:53 10.22438437ARLON
122.923CEULEMANS NICOLAS48BELANTILOB2:02:102:02:495:56 10.14450427INCOURT
123.5465LIBOIS JEAN-MARC49BEL2:03:182:03:315:58 10.08454416SAINT-SERVAIS
124.5567OGUZ DALI44BEL2:03:572:04:095:59 10.03462407JAMBES
125.5218ESCARMELLE JOHANN42BEL2:03:512:04:106:00 10.03464407BOTHEY
126.5260VANWICHELEN PHILIPPE49BELJAMES2:03:492:04:276:00 10.00466406BIERGES
127.5432DE BOCK PHILIP46BELJAMES2:04:042:04:466:01 9.98470402OTTIGNIES-LOUVAIN-LA-NEUVE
128.5206GREGOOR FABIAN45BEL2:04:552:05:336:03 9.92478392VILLERS LE BOUILLET
129.4339STEELS PHILIPPE40BEL2:05:022:05:406:04 9.91482389BRUXELLES
130.5532MICHEL PIERRE49BELRUNNING CLUB METTET2:05:212:05:446:04 9.90483386DENEE
131.695DE DAPPER DAVID45BELCSFMYSTERE2:06:092:06:116:05 9.87493375BRUXELLES
132.273SABLON DOMINIQUE48BELCRAC2:05:422:06:156:06 9.86495378FORCHIES-LA-MARCHE
133.4470VANDERMEULEN DENIS42BELCRACCRAC2:05:412:06:166:06 9.86497377GILLY
134.132BENALI HICHAM42BELCSFMYSTERE2:07:222:07:426:10 9.75511357SAINT-GILLES
135.5330DERAEMAEKER PATRICK47BELETENGHET ENGHIEN2:07:572:08:116:11 9.71517350QUENAST
136.5586BEYLS PHILIPPE49BELJCL2:08:282:09:226:15 9.62527341MOUSCRON
137.5251JACQUET CHRISTOPHE47BEL2:09:332:09:526:16 9.59535329WIERDE
138.5372GUYOMARCH AYMERIC40BELMYSTÈRE2:09:332:10:116:17 9.56541326UCCLE
139.4504GOGNIES DAVID49FRAFFADAC REIMS2:10:492:11:036:19 9.50551311VANDIERES
140.5427SIMON ETIENNE42BEL2:11:472:12:296:24 9.40569296WÉPION
141.5439FOURNAUX EMMANUEL45BEL2:12:582:13:476:27 9.31582281NIVELLES
142.4442HOTAT MICHEL49BELJAMES2:13:072:13:486:27 9.31583279VILLERS-LA-VILLE
143.5416CASSART CORANTIN42BELPOULAIN DE TRAIT2:13:422:14:196:29 9.27590272SOVET
144.383MAGOTTE OLIVIER46BELJAMES2:13:522:14:316:29 9.26594268OTTIGNIES
145.5252CLABECQ LAURENT41BEL2:17:202:17:406:39 9.04621230GENTINNES
146.5482CATOUL GERALD46BELLES FRELONS2:27:212:27:417:08 8.43682131MOHA
147.5563SIMONART DAVID42BEL2:28:102:28:527:11 8.36688122GAURAIN-RAMECROIX
148.5209LECUYER FRED47FRA2:28:512:29:417:13 8.32691117LES MAZURES
149.4475HOEBERS CHRISTOPHE41BELTRILUX2:33:422:34:217:27 8.0770677MESSANCY
150.4503WILPUTTE XAVIER41BEL2:35:532:36:457:34 7.9471559DORINNE
DNF4509BAGGERMAN ARJAN40NLDSLIEDRECHT
DNF5481NUGENT JAMES46GBRSPIBOMONS
DNF: did not finish; DSQ: disqualified; Speed in km/h
Page: [1]